0 GLOBALSTAR M001 1 25162U 98008A 25181.69457338 -.00000094 00000-0 22314-4 0 9993 2 25162 52.0046 293.9109 0000926 262.1659 244.5456 12.38213966245491 0 GLOBALSTAR M004 1 25163U 98008B 25181.84915267 -.00000081 00000-0 12573-3 0 9992 2 25163 52.0020 12.4725 0002671 337.0075 126.3952 12.63397685263515 0 GLOBALSTAR M002 1 25164U 98008C 25181.24602265 -.00000076 00000-0 42999-5 0 9999 2 25164 51.9979 207.4620 0001553 182.9130 177.1681 11.61510273185584 0 GLOBALSTAR M003 1 25165U 98008D 25181.79699128 -.00000129 00000-0 -41716-3 0 9998 2 25165 51.9969 130.8305 0008239 323.5064 46.2681 12.12073099234960 0 GLOBALSTAR M014 1 25306U 98023A 25181.61487270 -.00000063 00000-0 27485-3 0 9999 2 25306 51.9821 129.4774 0001436 16.7969 154.6156 11.65481447192731 0 GLOBALSTAR M006 1 25307U 98023B 25181.34478593 -.00000086 00000-0 -21832-3 0 9994 2 25307 51.9900 183.1258 0002905 131.9129 335.3805 11.58176580218351 0 GLOBALSTAR M015 1 25308U 98023C 25181.52406814 -.00000056 00000-0 38966-3 0 9994 2 25308 51.9828 281.7631 0012895 100.9485 272.8190 11.48860358195618 0 GLOBALSTAR M008 1 25309U 98023D 25181.35308416 -.00000100 00000-0 -31745-4 0 9995 2 25309 51.9942 159.8825 0002440 206.5780 300.6671 12.36070830239475 0 GLOBALSTAR M023 1 25621U 99004A 25181.57279912 -.00000162 00000-0 -32437-3 0 9990 2 25621 52.0129 12.6814 0010154 150.4943 248.3746 12.62506896217421 0 GLOBALSTAR M040 1 25622U 99004B 25181.54904983 -.00000065 00000-0 21454-3 0 9999 2 25622 51.9934 16.9291 0001702 74.3490 304.4731 12.62012040216947 0 GLOBALSTAR M036 1 25623U 99004C 25181.79802743 -.00000066 00000-0 24255-3 0 9991 2 25623 51.9929 204.4471 0010956 78.5926 92.0285 11.86608242180570 0 GLOBALSTAR M038 1 25624U 99004D 25181.89118369 -.00000086 00000-0 76394-4 0 9991 2 25624 51.9991 32.1059 0002708 80.1291 21.5136 12.32528678204023 0 GLOBALSTAR M022 1 25649U 99012A 25181.44572066 -.00000073 00000-0 17102-3 0 9993 2 25649 52.0029 254.8603 0002904 195.2725 177.7581 12.02501044177976 0 GLOBALSTAR M041 1 25650U 99012B 25181.58245335 -.00000074 00000-0 14835-3 0 9997 2 25650 52.0000 136.3480 0001882 347.0288 13.0499 11.96681362179885 0 GLOBALSTAR M046 1 25651U 99012C 25181.84105860 -.00000119 00000-0 -33359-3 0 9998 2 25651 52.0025 203.4205 0002182 277.9061 253.3520 12.09411700185667 0 GLOBALSTAR M037 1 25652U 99012D 25181.25741924 -.00000066 00000-0 21171-3 0 9990 2 25652 51.9984 144.2568 0001723 222.3347 275.9461 12.62447591212925 0 GLOBALSTAR M045 1 25676U 99019A 25181.55213839 -.00000078 00000-0 13725-3 0 9994 2 25676 51.9968 267.1782 0000634 175.5895 287.7775 12.27063088195030 0 GLOBALSTAR M019 1 25677U 99019B 25181.84140556 -.00000121 00000-0 -32378-3 0 9997 2 25677 51.9893 37.6774 0001586 20.1250 352.8949 12.13873021186999 0 GLOBALSTAR M044 1 25678U 99019C 25181.62107200 -.00000034 00000-0 69470-3 0 9998 2 25678 51.9991 351.3330 0006854 70.2613 7.3209 11.90254634172921 0 GLOBALSTAR M042 1 25679U 99019D 25181.46521191 -.00000094 00000-0 -12824-4 0 9999 2 25679 52.0030 13.4700 0002639 343.7890 27.1274 12.22084007186880 0 GLOBALSTAR M025 1 25770U 99031A 25181.60304090 -.00000054 00000-0 41389-3 0 9990 2 25770 51.9798 128.1913 0001245 174.3326 7.7037 11.22558830483212 0 GLOBALSTAR M049 1 25771U 99031B 25181.20201988 -.00000019 00000-0 16024-2 0 9997 2 25771 51.9832 164.5391 0002911 20.8720 339.2195 11.12116498118874 0 GLOBALSTAR M047 1 25772U 99031C 25181.30713873 -.00000077 00000-0 -20866-3 0 9995 2 25772 51.9799 160.0163 0016806 286.1319 73.7636 11.31928883472596 0 GLOBALSTAR M052 1 25773U 99031D 25181.57282051 -.00000075 00000-0 -29475-3 0 9997 2 25773 51.9866 272.1870 0003052 191.2383 181.8047 11.15059894137839 0 GLOBALSTAR M035 1 25851U 99037A 25181.60012780 -.00000106 00000-0 -16032-2 0 9993 2 25851 51.9969 25.0534 0013970 6.6252 29.7668 11.04538823 97742 0 GLOBALSTAR M032 1 25852U 99037B 25181.37329903 -.00000090 00000-0 -74114-3 0 9994 2 25852 51.9913 209.8481 0012322 189.0332 171.0248 11.19061912136262 0 GLOBALSTAR M051 1 25853U 99037C 25181.44412209 -.00000081 00000-0 -22899-3 0 9998 2 25853 51.9820 8.9114 0000389 147.9173 212.1661 11.42204732133906 0 GLOBALSTAR M030 1 25854U 99037D 25181.06422268 -.00000089 00000-0 -28693-3 0 9999 2 25854 51.9838 175.1149 0002990 65.1333 294.9795 11.55108700151537 0 GLOBALSTAR M048 1 25872U 99041A 25181.59232391 -.00000048 00000-0 59912-3 0 9990 2 25872 51.9389 304.1074 0013556 205.5104 167.5609 11.33857612126502 0 GLOBALSTAR M026 1 25873U 99041B 25181.63297223 -.00000012 00000-0 19054-2 0 9994 2 25873 51.9985 142.7976 0002311 302.7476 228.1628 11.06840564149970 0 GLOBALSTAR M043 1 25874U 99041C 25181.07590745 -.00000040 00000-0 84355-3 0 9996 2 25874 51.9421 53.4896 0013541 337.1043 174.5499 11.25695673124326 0 GLOBALSTAR M028 1 25875U 99041D 25181.66036048 -.00000098 00000-0 16926-4 0 9996 2 25875 51.9602 152.8896 0063349 100.4895 260.3112 12.50584210191894 0 GLOBALSTAR M024 1 25883U 99043A 25181.78016988 -.00000116 00000-0 -18332-2 0 9994 2 25883 52.0052 349.9523 0002148 114.0857 258.7352 11.10167891116407 0 GLOBALSTAR M027 1 25884U 99043B 25181.07727670 -.00000097 00000-0 -12568-2 0 9997 2 25884 52.0226 69.8846 0021968 13.4658 346.6717 11.04371956142660 0 GLOBALSTAR M054 1 25885U 99043C 25181.20484102 -.00000081 00000-0 -24184-3 0 9994 2 25885 52.0101 194.7175 0005845 200.5178 239.7821 11.39224580120536 0 GLOBALSTAR M053 1 25886U 99043D 25181.66179774 -.00000072 00000-0 -10825-3 0 9998 2 25886 51.9960 141.4622 0002954 97.2510 73.4998 11.27665702121107 0 GLOBALSTAR M058 1 25907U 99049A 25181.87973621 -.00000094 00000-0 -12730-3 0 9995 2 25907 51.9953 72.6118 0001855 312.5424 47.5254 11.93199900154382 0 GLOBALSTAR M050 1 25908U 99049B 25181.48471145 -.00000069 00000-0 21765-3 0 9996 2 25908 51.9997 80.3489 0009801 57.2674 114.0438 12.07454499149793 0 GLOBALSTAR M033 1 25909U 99049C 25181.61937140 -.00000072 00000-0 18699-3 0 9990 2 25909 51.9927 310.8839 0012876 290.4267 69.5197 12.20294082537389 0 GLOBALSTAR M055 1 25910U 99049D 25181.34625625 -.00000077 00000-0 14516-3 0 9993 2 25910 52.0039 321.7600 0007603 154.9989 205.1232 12.29429166169900 0 GLOBALSTAR M057 1 25943U 99058A 25181.49755671 -.00000042 00000-0 46094-3 0 9998 2 25943 52.0002 310.4307 0003025 57.4342 302.6799 12.24823616168564 0 GLOBALSTAR M059 1 25944U 99058B 25181.35404461 -.00000085 00000-0 13504-4 0 9990 2 25944 51.9985 171.5520 0000757 325.1937 176.8919 11.99980198575624 0 GLOBALSTAR M056 1 25945U 99058C 25181.39000514 -.00000046 00000-0 48446-3 0 9995 2 25945 51.9930 173.0755 0000995 219.1127 308.6185 12.04781919164215 0 GLOBALSTAR M031 1 25946U 99058D 25181.42333086 .00000053 00000-0 14600-2 0 9994 2 25946 51.9973 64.5229 0000769 177.8354 353.5033 12.16038239166153 0 GLOBALSTAR M039 1 25961U 99062A 25181.30885893 -.00000091 00000-0 72735-4 0 9999 2 25961 51.9826 228.7521 0002452 20.4832 339.6132 12.62329082181872 0 GLOBALSTAR M034 1 25962U 99062B 25181.75142637 -.00000095 00000-0 -22522-3 0 9994 2 25962 51.9896 336.1285 0014774 68.8321 304.4937 11.79446008139972 0 GLOBALSTAR M029 1 25963U 99062C 25181.11991252 -.00000067 00000-0 23315-3 0 9999 2 25963 51.9816 60.2110 0002648 127.2642 39.4817 11.99898183170671 0 GLOBALSTAR M061 1 25964U 99062D 25181.87025947 -.00000071 00000-0 15806-3 0 9993 2 25964 51.9763 160.0352 0006283 348.6693 18.5768 11.76776442123088 0 GLOBALSTAR M063 1 26081U 00008A 25180.88715789 -.00000108 00000-0 -37327-3 0 9990 2 26081 51.9962 78.1246 0004832 349.4222 91.0059 11.86174607159080 0 GLOBALSTAR M062 1 26082U 00008B 25181.87230132 .00000038 00000-0 97486-3 0 9997 2 26082 51.9861 55.5385 0007304 134.6913 306.8232 12.43470077160828 0 GLOBALSTAR M060 1 26083U 00008C 25181.60164593 .00000052 00000-0 14242-2 0 9990 2 26083 52.0040 18.2396 0003561 138.6470 256.7508 12.17666876154008 0 GLOBALSTAR M064 1 26084U 00008D 25181.26303734 -.00000096 00000-0 -17641-3 0 9992 2 26084 51.9997 175.8083 0001221 74.9795 285.1172 11.88534663168658 0 GLOBALSTAR M065 1 31571U 07020A 25181.21904075 -.00000105 00000-0 -68777-5 0 9999 2 31571 51.9861 186.6028 0010092 337.9596 103.8412 12.62009774835052 0 GLOBALSTAR M069 1 31573U 07020C 25181.34002896 -.00000102 00000-0 -83287-4 0 9994 2 31573 51.9922 168.0006 0001056 189.4887 311.1632 12.23446901835732 0 GLOBALSTAR M072 1 31574U 07020D 25181.60244663 -.00000076 00000-0 11047-3 0 9997 2 31574 51.9952 316.2558 0000856 35.0032 46.9269 11.91649843833067 0 GLOBALSTAR M071 1 31576U 07020F 25181.34748502 -.00000041 00000-0 49491-3 0 9997 2 31576 52.0027 193.9514 0000720 145.4376 317.3835 12.18255966496544 0 GLOBALSTAR M067 1 32263U 07048A 25181.54048312 -.00000090 00000-0 56160-4 0 9991 2 32263 51.9746 356.8593 0001400 49.9024 349.2511 12.40674216811145 0 GLOBALSTAR M070 1 32264U 07048B 25181.13888344 -.00000078 00000-0 14361-3 0 9996 2 32264 51.9754 89.0464 0000651 68.2088 75.2156 12.62319516815304 0 GLOBALSTAR M066 1 32265U 07048C 25181.37676630 -.00000081 00000-0 11411-3 0 9993 2 32265 51.9631 347.7681 0003053 16.0152 351.3271 12.29928845816925 0 GLOBALSTAR M068 1 32266U 07048D 25181.53645772 -.00000063 00000-0 22662-3 0 9995 2 32266 51.9882 261.5654 0001453 156.4256 307.0659 12.62825329819249 0 GLOBALSTAR M079 1 37188U 10054A 25181.50389583 -.00000084 00000-0 11045-3 0 9992 2 37188 52.0039 99.2467 0000665 21.3559 149.7703 12.62265242678135 0 GLOBALSTAR M074 1 37189U 10054B 25181.53060157 -.00000091 00000-0 73250-4 0 9994 2 37189 52.0019 98.4880 0000757 46.4775 124.4313 12.62256930678742 0 GLOBALSTAR M076 1 37190U 10054C 25181.47781446 -.00000091 00000-0 73593-4 0 9990 2 37190 52.0031 98.8191 0000821 36.1333 135.7561 12.62263334678459 0 GLOBALSTAR M077 1 37191U 10054D 25180.97439782 -.00000084 00000-0 10818-3 0 9990 2 37191 52.0083 57.2124 0000816 66.3215 37.0432 12.62268701678768 0 GLOBALSTAR M075 1 37192U 10054E 25181.65075568 -.00000092 00000-0 66557-4 0 9996 2 37192 51.9931 140.5427 0000333 34.3525 143.7485 12.62265851677545 0 GLOBALSTAR M073 1 37193U 10054F 25180.99707170 -.00000078 00000-0 14423-3 0 9992 2 37193 52.0073 56.3616 0000851 57.1835 29.0685 12.62272283679458 0 GLOBALSTAR M083 1 37739U 11033A 25181.47099582 -.00000092 00000-0 66237-4 0 9998 2 37739 51.9877 3.6339 0000674 95.1710 284.6416 12.62259484648532 0 GLOBALSTAR M088 1 37740U 11033B 25181.52219756 -.00000076 00000-0 15399-3 0 9997 2 37740 52.0216 269.0530 0000637 140.4468 232.8831 12.62266403644088 0 GLOBALSTAR M091 1 37741U 11033C 25181.45602502 -.00000105 00000-0 -67759-5 0 9998 2 37741 51.9980 232.7384 0000394 191.8608 181.0486 12.62269139644861 0 GLOBALSTAR M085 1 37742U 11033D 25181.62070900 -.00000116 00000-0 -70910-4 0 9993 2 37742 51.9837 183.2609 0000189 263.4868 198.6878 12.62269581645398 0 GLOBALSTAR M081 1 37743U 11033E 25181.33039312 -.00000112 00000-0 -46358-4 0 9999 2 37743 51.9930 186.9427 0000210 316.9913 143.8533 12.62266889645502 0 GLOBALSTAR M089 1 37744U 11033F 25181.62279640 -.00000094 00000-0 53067-4 0 9995 2 37744 51.9912 140.2750 0000585 46.2838 125.2184 12.62265123646382 0 GLOBALSTAR M084 1 38040U 11080A 25181.00143988 -.00000107 00000-0 -15246-4 0 9997 2 38040 52.0028 9.4633 0001143 80.6760 85.0445 12.62266808624284 0 GLOBALSTAR M080 1 38041U 11080B 25181.49559637 -.00000098 00000-0 30317-4 0 9997 2 38041 52.0080 9.5556 0000816 119.4724 262.3547 12.62263656624477 0 GLOBALSTAR M082 1 38042U 11080C 25181.66739647 -.00000099 00000-0 25807-4 0 9997 2 38042 52.0091 324.4947 0000749 139.5821 234.0596 12.62266862625371 0 GLOBALSTAR M092 1 38043U 11080D 25181.43838721 -.00000099 00000-0 25583-4 0 9997 2 38043 52.0097 55.5686 0000787 70.8739 101.4700 12.62264384623624 0 GLOBALSTAR M090 1 38044U 11080E 25181.80294179 -.00000098 00000-0 29643-4 0 9992 2 38044 52.0141 317.9219 0000641 119.2270 31.9921 12.62273676625379 0 GLOBALSTAR M086 1 38045U 11080F 25181.57613627 -.00000083 00000-0 11460-3 0 9991 2 38045 51.9915 319.1130 0000981 33.9790 46.4885 12.62272052625354 0 GLOBALSTAR M097 1 39072U 13005A 25181.82257109 -.00000114 00000-0 -59223-4 0 9994 2 39072 52.0029 232.9240 0000145 160.0134 200.0738 12.62265454572616 0 GLOBALSTAR M093 1 39073U 13005B 25181.47950496 -.00000103 00000-0 23449-5 0 9994 2 39073 51.9791 227.2502 0000170 191.8486 168.2376 12.62265870572445 0 GLOBALSTAR M094 1 39074U 13005C 25181.55878590 -.00000107 00000-0 -17522-4 0 9997 2 39074 51.9939 141.4024 0000432 349.4172 10.6685 12.62262841574068 0 GLOBALSTAR M096 1 39075U 13005D 25181.49275106 -.00000116 00000-0 -66635-4 0 9994 2 39075 52.0043 190.1295 0000251 273.1384 86.9454 12.62265601572970 0 GLOBALSTAR M078 1 39076U 13005E 25181.54554623 -.00000055 00000-0 27411-3 0 9994 2 39076 51.9875 274.4621 0001051 178.5244 181.5626 12.62258081571609 0 GLOBALSTAR M095 1 39077U 13005F 25181.41342447 -.00000092 00000-0 65508-4 0 9991 2 39077 51.9811 272.0541 0000577 181.4546 178.6319 12.62267868571446 0 GLOBALSTAR M087 1 52888U 22064A 25181.04823125 -.00000085 00000-0 10402-3 0 9991 2 52888 52.0006 54.6448 0000644 68.3316 291.7619 12.62263648146666